Date,TemperatureHighF,TemperatureAvgF,TemperatureLowF,DewpointHighF,DewpointAvgF,DewpointLowF,HumidityHigh,HumidityAvg,HumidityLow,PressureMaxIn,PressureMinIn,WindSpeedMaxMPH,WindSpeedAvgMPH,GustSpeedMaxMPH,PrecipitationSumIn
2014-1-1,19,11,4,11,5,1,90,79,63,30.44,30.19,15,2,21,0.00
2014-1-2,9,5,-1,6,2,-4,88,85,79,30.43,29.99,4,1,6,0.28
2014-1-3,2,-1,-7,-1,-5,-13,85,79,69,30.44,29.91,18,3,23,0.05
2014-1-4,18,11,-4,8,2,-9,84,68,48,30.52,30.29,6,1,8,0.00
2014-1-5,38,23,7,26,16,4,95,74,48,30.38,30.01,5,1,9,0.04
2014-1-6,43,33,21,43,29,11,99,88,64,30.01,29.31,23,4,26,0.42
2014-1-7,21,7,0,11,-4,-10,67,59,49,30.16,29.48,30,7,31,0.00
2014-1-8,18,8,2,3,-2,-8,74,63,48,30.48,30.16,14,3,22,0.00
2014-1-9,24,11,2,9,3,-1,88,73,48,30.69,30.44,17,2,23,0.00
2014-1-10,27,18,4,24,15,1,91,87,83,30.55,30.41,3,0,3,0.01
2014-1-11,50,36,29,49,35,28,99,98,95,30.07,29.24,15,1,18,0.57
2014-1-12,49,38,32,48,30,23,95,73,59,29.94,29.27,26,7,31,0.01
2014-1-13,44,37,28,32,27,24,83,68,49,30.10,29.88,13,2,19,0.00
2014-1-14,39,36,33,38,34,30,98,93,80,29.88,29.67,8,1,12,0.44
2014-1-15,43,35,28,36,32,26,98,87,66,30.01,29.77,8,1,10,0.00
2014-1-16,32,31,28,32,30,26,98,94,88,29.97,29.89,7,1,8,0.04
2014-1-17,40,31,24,32,27,22,97,85,51,29.97,29.90,9,1,12,0.00
2014-1-18,32,27,21,29,25,19,96,92,80,29.95,29.70,5,0,8,0.04
2014-1-19,30,27,25,28,23,18,96,84,72,29.74,29.50,22,3,22,0.02
2014-1-20,32,24,4,29,19,-3,93,81,70,29.93,29.49,21,4,22,0.00
2014-1-21,6,2,-2,-2,-6,-8,75,67,57,30.11,29.92,14,3,16,0.00
2014-1-22,11,-1,-8,-4,-11,-100,76,65,49,30.02,29.77,18,5,21,0.00
2014-1-23,12,2,-5,-3,-7,-10,75,65,49,30.19,29.97,17,4,19,0.00
2014-1-24,13,3,-6,-2,-6,-10,76,63,40,30.31,30.02,16,4,20,0.00
2014-1-25,25,17,8,20,9,-2,92,71,51,30.02,29.32,16,3,21,0.02
2014-1-26,19,11,3,16,-1,-10,89,57,39,29.88,29.33,26,6,33,0.01
2014-1-27,31,18,11,25,7,-5,90,63,34,30.00,29.54,25,4,36,0.00
2014-1-28,15,8,2,-3,-6,-8,75,53,35,30.32,30.00,18,4,25,0.00
2014-1-29,22,10,-3,-1,-5,-9,81,54,27,30.27,29.97,14,3,19,0.00
2014-1-30,28,14,0,9,3,-4,86,62,40,30.46,30.17,13,2,15,0.00
2014-1-31,37,24,12,18,13,4,81,62,41,30.22,30.03,15,2,17,0.00
2014-2-1,39,28,18,31,22,15,95,77,51,30.37,30.02,10,1,10,0.00
2014-2-2,41,34,29,38,31,27,96,90,81,30.11,29.87,8,1,11,0.04
2014-2-3,32,27,16,27,17,12,85,68,52,30.33,30.10,11,1,15,0.00
2014-2-4,31,20,11,17,12,8,92,72,48,30.50,30.31,12,1,15,0.00
2014-2-5,23,21,18,20,17,12,92,85,62,30.38,29.76,10,1,10,0.46
2014-2-6,20,12,4,15,7,2,91,79,59,30.31,29.99,13,3,16,0.00
2014-2-7,25,13,-4,11,5,-6,91,70,51,30.26,30.17,16,3,20,0.00
2014-2-8,24,16,6,8,4,-2,71,59,45,30.31,30.18,17,3,18,0.00
2014-2-9,26,19,13,18,11,6,91,69,47,30.22,29.97,12,1,12,0.00
2014-2-10,20,15,4,17,9,1,92,80,59,30.24,29.93,17,2,21,0.07
2014-2-11,19,8,-3,7,0,-6,90,72,52,30.51,30.24,18,3,21,0.00
2014-2-12,27,11,-2,6,-3,-7,77,54,25,30.62,30.45,10,2,14,0.00
2014-2-13,32,19,4,31,15,-3,96,83,59,30.45,29.18,13,1,17,0.50
2014-2-14,32,27,23,31,25,21,96,92,87,29.73,28.93,24,5,32,0.45
2014-2-15,30,25,20,26,23,18,94,89,80,29.88,29.59,18,1,21,0.03
2014-2-16,24,17,10,21,8,-2,88,67,48,30.03,29.61,31,8,36,0.00
2014-2-17,21,11,1,1,-3,-6,70,53,38,30.43,30.03,22,4,26,0.00
2014-2-18,22,12,-3,19,8,-8,92,82,67,30.41,30.06,7,1,8,0.23
2014-2-19,29,23,14,26,20,12,94,89,79,30.14,29.82,6,1,9,0.09
2014-2-20,43,34,27,32,27,22,95,76,47,30.23,29.89,14,2,17,0.00
2014-2-21,34,33,31,33,32,30,98,97,95,30.16,29.75,10,1,10,0.67
2014-2-22,46,38,30,31,25,13,98,61,35,29.93,29.81,22,4,30,0.05
2014-2-23,47,40,34,27,20,11,63,46,29,29.96,29.77,17,4,19,0.00
2014-2-24,36,24,14,15,8,4,74,51,35,29.94,29.75,28,7,31,0.00
2014-2-25,20,14,7,7,5,2,87,67,50,29.98,29.90,18,4,27,0.00
2014-2-26,24,9,-4,14,2,-7,89,72,40,29.95,29.80,26,3,31,0.00
2014-2-27,22,11,1,11,0,-8,85,63,39,29.92,29.62,27,4,33,0.00
2014-2-28,19,7,-1,-5,-8,-13,66,47,30,30.49,29.92,22,4,25,0.00
2014-3-1,27,17,-4,15,1,-10,80,50,32,30.50,30.11,11,2,12,0.00
2014-3-2,29,24,14,20,14,4,76,65,55,30.11,30.02,13,3,18,0.00
2014-3-3,18,10,0,4,-3,-8,74,55,32,30.34,30.06,18,3,22,0.00
2014-3-4,27,11,-7,11,-2,-12,83,58,25,30.42,30.30,12,2,13,0.00
2014-3-5,22,15,7,15,9,-7,89,76,50,30.57,30.31,22,1,22,0.01
2014-3-6,32,14,-3,0,-7,-12,62,41,17,30.71,30.56,8,2,11,0.00
2014-3-7,37,18,-5,13,2,-9,82,53,22,30.57,30.02,10,1,15,0.00
2014-3-8,45,28,13,26,18,9,92,67,45,30.02,29.77,18,3,22,0.00
2014-3-9,32,25,17,14,8,2,75,52,29,29.98,29.89,21,4,23,0.00
2014-3-10,36,28,20,28,21,7,93,75,47,29.89,29.64,9,1,9,0.03
2014-3-11,49,36,27,36,29,26,97,78,46,29.76,29.51,19,2,20,0.09
2014-3-12,34,31,23,32,29,22,97,94,89,29.75,29.16,9,1,13,0.85
2014-3-13,23,12,6,22,7,-1,94,82,64,29.97,29.12,25,7,30,0.04
2014-3-14,30,18,4,21,8,-3,82,65,51,30.19,29.91,12,2,15,0.00
2014-3-15,47,35,24,35,27,20,91,74,56,29.91,29.68,26,4,26,0.01
2014-3-16,32,20,9,23,8,-3,91,62,34,30.27,29.87,24,6,26,0.01
2014-3-17,25,12,1,-1,-4,-6,72,49,27,30.26,30.11,15,2,19,0.00
2014-3-18,42,21,4,10,0,-5,68,43,14,30.40,30.22,8,1,9,0.00
2014-3-19,36,26,12,28,18,8,94,73,51,30.42,30.03,12,2,17,0.40
2014-3-20,40,33,29,37,30,26,96,86,64,30.06,29.63,19,3,24,0.33
2014-3-21,36,31,27,27,22,16,88,68,52,30.03,29.70,26,6,30,0.00
2014-3-22,39,28,16,31,21,13,91,75,60,30.06,29.70,22,2,31,0.02
2014-3-23,31,26,10,24,13,-3,78,58,32,30.15,29.93,21,5,23,0.00
2014-3-24,26,14,3,2,-2,-4,70,51,32,30.20,30.10,22,4,25,0.00
2014-3-25,34,18,-3,12,4,-6,88,58,29,30.18,30.03,14,2,18,0.00
2014-3-26,28,22,15,14,8,-100,72,56,36,30.06,29.73,31,6,37,0.00
2014-3-27,40,24,12,18,3,-2,57,41,23,30.35,30.06,23,4,32,0.00
2014-3-28,44,36,30,43,30,12,98,84,39,30.23,29.94,17,1,18,0.16
2014-3-29,48,42,36,43,36,33,97,83,62,30.29,30.05,17,2,18,0.15
2014-3-30,37,35,34,36,34,33,98,96,90,30.08,29.71,13,2,20,0.97
2014-3-31,41,34,30,33,29,25,98,84,64,30.11,29.78,19,4,24,0.18
2014-4-1,56,39,27,32,26,22,84,63,36,30.15,30.05,12,3,14,0.00
2014-4-2,57,40,27,34,29,24,91,66,36,30.13,30.02,10,2,12,0.00
2014-4-3,47,39,30,27,23,21,81,52,39,30.18,30.07,18,4,20,0.00
2014-4-4,46,33,22,31,24,20,94,72,42,30.20,29.95,13,2,15,0.28
2014-4-5,45,36,32,40,30,23,98,80,55,29.95,29.71,25,4,28,0.21
2014-4-6,52,38,31,24,21,16,72,52,28,30.20,29.94,23,5,25,0.00
2014-4-7,53,42,27,35,26,19,89,57,31,30.25,29.94,17,2,24,0.04
2014-4-8,52,42,38,48,40,32,98,92,77,29.95,29.32,18,2,21,0.52
2014-4-9,46,39,30,34,25,7,90,62,23,29.98,29.51,22,5,27,0.01
2014-4-10,62,42,22,29,21,13,86,47,20,30.15,29.94,23,4,23,0.00
2014-4-11,66,51,40,42,33,23,96,55,21,30.05,29.90,20,3,20,0.03
2014-4-12,63,48,34,43,33,25,98,64,29,30.24,30.01,17,2,19,0.01
2014-4-13,42,39,36,39,35,29,97,85,60,30.32,30.06,8,1,9,0.33
2014-4-14,74,54,32,56,45,31,98,75,46,30.06,29.80,36,5,40,0.00
2014-4-15,62,56,33,59,52,32,97,89,75,29.83,29.47,20,6,28,0.63
2014-4-16,36,28,20,32,19,13,98,72,41,30.67,29.75,23,6,28,0.08
2014-4-17,45,31,17,21,17,13,92,60,31,30.87,30.67,14,2,14,0.00
2014-4-18,45,34,21,29,24,19,93,69,47,30.72,30.27,12,2,14,0.00
2014-4-19,51,39,27,36,28,23,95,68,42,30.46,30.18,26,4,28,0.00
2014-4-20,58,43,26,27,21,14,84,47,19,30.55,30.33,14,2,14,0.00
2014-4-21,76,53,30,33,26,22,83,42,15,30.33,29.82,14,2,17,0.00
2014-4-22,72,58,44,51,37,23,94,50,26,29.82,29.45,15,2,17,0.05
2014-4-23,52,45,40,50,40,31,97,82,68,29.67,29.43,21,4,30,0.00
2014-4-24,52,42,33,32,26,21,75,54,38,29.97,29.67,31,8,40,0.00
2014-4-25,64,48,32,31,24,16,76,43,16,30.04,29.82,14,3,17,0.00
2014-4-26,49,41,37,39,36,30,97,85,48,29.89,29.77,11,1,13,0.28
2014-4-27,49,40,34,40,36,33,98,87,68,30.11,29.88,16,3,19,0.13
2014-4-28,57,46,36,45,37,33,93,72,50,30.26,30.05,13,2,17,0.00
2014-4-29,52,43,37,38,33,30,88,70,49,30.56,30.26,13,3,16,0.00
2014-4-30,42,38,36,38,35,33,97,91,79,30.58,30.24,10,1,11,0.38
2014-5-1,70,47,36,55,44,35,98,90,53,30.24,29.68,12,1,17,0.33
2014-5-2,60,50,40,47,41,36,96,71,43,29.82,29.67,24,3,27,0.00
2014-5-3,62,50,39,46,40,36,96,71,45,29.86,29.73,15,2,18,0.05
2014-5-4,54,46,41,46,41,37,98,83,55,29.74,29.51,19,4,24,0.07
2014-5-5,55,47,42,44,41,37,96,79,56,29.91,29.65,20,4,23,0.00
2014-5-6,60,48,39,38,32,24,89,58,27,30.08,29.86,23,4,24,0.00
2014-5-7,66,50,36,35,28,24,74,47,22,30.21,30.08,17,3,24,0.00
2014-5-8,72,55,34,36,29,22,81,42,16,30.23,30.08,12,1,16,0.00
2014-5-9,53,49,45,46,36,27,97,65,39,30.25,30.09,8,1,8,0.01
2014-5-10,80,60,45,63,49,41,99,72,34,30.09,29.73,17,2,23,0.07
2014-5-11,74,63,51,42,36,30,65,39,21,30.03,29.79,20,5,26,0.00
2014-5-12,83,64,41,44,40,37,87,48,21,30.11,30.00,18,3,21,0.00
2014-5-13,64,51,48,44,42,39,82,72,42,30.34,30.11,10,2,13,0.00
2014-5-14,72,56,45,48,43,38,87,62,37,30.34,30.23,14,2,14,0.00
2014-5-15,74,60,48,62,55,45,92,82,64,30.30,30.16,15,2,21,0.00
2014-5-16,65,62,60,62,60,58,98,94,85,30.17,29.94,14,3,18,0.62
2014-5-17,70,60,47,62,49,33,98,72,27,30.08,29.79,17,4,20,1.08
2014-5-18,68,54,41,40,36,28,93,55,26,30.16,30.05,16,3,20,0.00
2014-5-19,58,50,40,46,38,32,90,65,39,30.13,30.06,20,3,25,0.00
2014-5-20,73,57,44,44,40,35,89,57,27,30.07,29.97,23,3,24,0.00
2014-5-21,77,59,40,52,44,38,96,63,27,30.02,29.89,8,1,14,0.00
2014-5-22,60,54,47,54,50,45,97,89,70,29.95,29.86,10,1,11,0.20
2014-5-23,54,52,50,53,51,49,99,97,93,30.02,29.88,6,1,7,0.30
2014-5-24,67,55,47,57,51,46,99,88,51,30.08,30.00,9,1,13,0.32
2014-5-25,76,62,46,59,54,45,99,76,38,30.09,29.98,11,1,13,0.00
2014-5-26,75,62,48,58,52,48,98,72,46,29.99,29.80,21,2,29,0.01
2014-5-27,72,55,44,61,52,42,97,89,66,29.99,29.82,9,1,14,0.06
2014-5-28,53,46,42,49,45,41,98,95,82,30.26,29.97,7,1,9,0.18
2014-5-29,70,54,39,47,41,35,99,68,33,30.29,30.13,9,1,14,0.00
2014-5-30,70,54,42,55,47,41,98,80,43,30.14,30.01,13,1,16,0.15
2014-5-31,70,55,44,58,49,43,99,82,46,30.33,30.09,10,1,10,0.03
2014-6-1,79,60,40,55,44,29,99,63,21,30.38,30.20,11,1,13,0.00
2014-6-2,86,65,44,58,49,42,96,62,24,30.22,29.98,13,1,15,0.00
2014-6-3,81,66,51,62,54,47,98,70,38,30.01,29.87,12,2,12,0.15
2014-6-4,69,60,53,59,55,51,96,86,67,29.91,29.77,8,1,8,0.00
2014-6-5,70,58,54,59,55,53,98,91,66,29.80,29.68,4,0,8,0.01
2014-6-6,71,61,53,55,53,50,96,77,51,29.91,29.72,19,4,22,0.01
2014-6-7,83,66,53,57,53,50,93,67,36,29.97,29.89,14,2,19,0.00
2014-6-8,86,68,51,60,54,49,97,66,31,29.97,29.85,11,1,11,0.00
2014-6-9,86,67,56,65,58,54,94,76,36,29.97,29.89,9,1,11,0.01
2014-6-10,79,65,58,65,59,52,98,82,56,30.13,29.93,6,0,11,0.03
2014-6-11,70,58,47,57,52,46,98,83,52,30.20,30.13,11,1,11,0.07
2014-6-12,60,55,51,56,54,50,98,94,85,30.20,30.09,4,0,8,0.45
2014-6-13,58,56,55,58,56,54,99,98,96,30.10,29.84,7,1,12,0.43
2014-6-14,73,61,54,63,55,50,100,84,47,29.95,29.81,13,2,16,0.04
2014-6-15,73,61,52,55,52,47,91,72,49,30.11,29.93,19,4,21,0.00
2014-6-16,82,64,47,57,49,39,98,65,23,30.18,30.02,11,1,12,0.00
2014-6-17,88,70,54,64,58,52,97,68,32,30.05,29.78,9,1,11,0.00
2014-6-18,78,70,63,66,61,57,95,76,50,29.95,29.65,20,4,22,0.21
2014-6-19,77,67,53,59,50,39,96,58,29,30.00,29.93,16,4,24,0.00
2014-6-20,69,57,44,48,43,36,95,64,35,30.01,29.93,21,3,27,0.00
2014-6-21,70,56,41,48,43,40,97,68,38,30.01,29.91,17,2,18,0.00
2014-6-22,78,59,41,56,48,40,97,69,36,30.06,29.97,12,1,14,0.00
2014-6-23,80,65,46,60,52,44,98,68,40,30.15,30.06,12,1,14,0.00
2014-6-24,77,67,56,64,58,54,96,76,58,30.13,29.95,14,2,17,0.00
2014-6-25,80,69,63,69,64,57,98,83,65,29.95,29.84,8,1,10,1.43
2014-6-26,71,66,59,69,65,58,99,96,90,30.03,29.80,7,0,8,0.44
2014-6-27,80,67,56,65,59,52,100,77,39,30.20,30.03,7,0,8,0.00
2014-6-28,84,71,50,62,52,39,99,57,22,30.30,30.23,9,1,10,0.00
2014-6-29,86,70,52,64,57,49,97,67,36,30.26,30.06,8,1,12,0.00
2014-6-30,88,74,60,69,64,58,97,73,44,30.08,29.88,13,2,14,0.00
2014-7-1,88,77,64,73,68,62,97,75,53,29.90,29.73,12,2,16,0.00
2014-7-2,91,75,67,75,70,66,98,84,52,29.91,29.77,14,1,20,0.47
2014-7-3,86,73,63,74,68,62,100,86,54,29.99,29.86,16,1,30,0.64
2014-7-4,68,64,57,68,64,56,99,98,95,30.00,29.88,9,1,11,0.30
2014-7-5,78,65,54,56,50,42,97,63,35,30.02,29.83,23,5,34,0.06
2014-7-6,83,70,57,57,52,48,83,56,31,29.99,29.84,18,3,20,0.00
2014-7-7,84,70,58,71,62,55,96,77,47,29.84,29.66,13,2,16,0.18
2014-7-8,84,75,65,72,68,64,98,81,61,29.77,29.60,19,2,19,0.00
2014-7-9,82,71,61,68,63,58,98,79,45,29.92,29.61,18,2,29,0.35
2014-7-10,78,65,54,61,56,48,99,76,35,30.18,29.92,12,2,16,0.00
2014-7-11,79,64,49,62,54,48,99,74,43,30.27,30.17,6,0,8,0.00
2014-7-12,85,68,50,66,58,49,99,75,43,30.24,30.09,7,1,10,0.00
2014-7-13,80,70,61,70,66,60,97,86,68,30.09,29.84,17,2,19,0.06
2014-7-14,87,74,65,70,66,62,98,79,48,29.89,29.82,10,2,15,0.00
2014-7-15,82,73,66,72,68,65,98,87,66,29.85,29.72,13,1,17,0.27
2014-7-16,77,68,60,69,65,58,99,89,61,29.87,29.74,9,1,10,0.55
2014-7-17,78,64,54,60,56,51,98,77,41,30.09,29.86,12,2,15,0.00
2014-7-18,80,64,50,61,54,49,99,74,38,30.25,30.09,12,2,13,0.00
2014-7-19,78,64,50,64,57,49,98,82,48,30.31,30.23,4,0,5,0.00
2014-7-20,77,64,54,63,57,53,99,81,46,30.24,30.16,6,1,7,0.01
2014-7-21,84,66,50,64,57,50,98,76,43,30.23,30.13,9,1,10,0.00
2014-7-22,88,73,58,70,64,57,98,77,46,30.16,29.95,11,1,12,0.00
2014-7-23,89,76,66,73,68,64,98,80,52,29.95,29.70,17,2,32,0.59
2014-7-24,77,68,56,66,59,53,98,77,46,29.90,29.76,12,2,16,0.37
2014-7-25,78,68,50,63,56,50,98,68,46,30.01,29.93,13,2,17,0.00
2014-7-26,78,65,52,63,56,51,98,76,44,29.98,29.86,13,1,16,0.00
2014-7-27,74,64,55,71,62,54,98,94,83,29.89,29.66,10,1,12,0.66
2014-7-28,74,65,61,72,64,60,99,98,89,29.68,29.44,10,1,14,1.48
2014-7-29,73,62,52,60,54,50,97,79,48,29.97,29.55,17,3,18,0.01
2014-7-30,74,61,51,62,55,50,98,82,50,30.05,29.97,6,0,7,0.00
2014-7-31,75,61,49,64,57,48,99,87,61,30.17,30.05,14,1,16,0.01
2014-8-1,83,66,51,68,60,50,99,83,47,30.23,30.17,10,1,11,0.00
2014-8-2,76,67,58,67,62,56,99,86,58,30.22,30.13,7,1,13,0.00
2014-8-3,78,66,53,67,60,52,99,84,56,30.15,30.04,8,0,8,0.00
2014-8-4,82,68,58,67,62,58,99,82,54,30.05,30.00,11,1,13,0.00
2014-8-5,83,68,57,68,62,56,99,83,49,30.05,29.90,8,1,10,0.08
2014-8-6,77,67,54,64,59,52,98,78,48,29.91,29.81,16,2,17,0.03
2014-8-7,72,60,51,61,54,50,95,83,55,29.98,29.87,12,2,15,0.01
2014-8-8,78,64,54,60,56,52,97,76,45,30.06,29.97,15,2,17,0.01
2014-8-9,84,67,54,62,56,51,97,71,34,30.13,30.04,14,1,16,0.00
2014-8-10,83,68,54,67,58,53,97,76,35,30.16,30.09,8,0,8,0.01
2014-8-11,82,68,53,67,60,52,99,78,48,30.17,30.08,8,0,10,0.00
2014-8-12,78,66,55,65,60,54,99,82,53,30.12,30.02,10,1,15,0.00
2014-8-13,65,61,58,62,60,57,99,96,90,30.03,29.67,20,2,20,2.85
2014-8-14,71,60,48,58,53,47,98,80,46,29.88,29.68,15,3,19,0.01
2014-8-15,66,56,47,56,51,46,98,85,61,29.92,29.86,10,1,13,0.00
2014-8-16,73,60,49,58,53,48,98,79,50,29.96,29.89,10,1,15,0.01
2014-8-17,71,60,54,61,56,52,99,88,62,29.91,29.81,16,2,20,0.06
2014-8-18,69,60,49,55,52,48,98,77,50,29.91,29.82,18,3,20,0.01
2014-8-19,77,60,46,61,52,46,98,78,42,29.99,29.90,8,1,11,0.00
2014-8-20,79,64,46,62,55,45,99,77,46,30.08,29.99,7,1,7,0.00
2014-8-21,69,60,54,63,57,52,98,90,76,30.14,30.07,9,0,11,1.54
2014-8-22,64,58,54,63,58,53,99,97,91,30.16,30.12,5,0,5,0.24
2014-8-23,77,63,53,63,57,52,99,85,51,30.18,30.13,8,0,8,0.01
2014-8-24,83,65,50,66,57,50,99,79,43,30.19,30.12,5,0,8,0.00
2014-8-25,87,70,57,67,60,54,98,77,35,30.19,30.11,8,1,10,0.00
2014-8-26,86,69,55,66,60,54,99,77,43,30.17,30.01,12,1,12,0.00
2014-8-27,85,72,60,69,64,58,97,77,51,30.01,29.84,13,2,16,0.10
2014-8-28,72,62,53,62,55,47,98,78,45,30.02,29.84,17,2,20,0.01